• In Belarus
  • List of Countries
  • For 7 days
  • Water Temperature
  • Satellite Maps
  • Weather Map
  • Weather Widgets
  • user-avatar
    Login

    Hourly Weather Pokostivka

    Today, 21 April, Sunday

    Time Temperature Precipitation Wind Pressure Humidity
    00:00 +8°C° 0.1 mm 3 mps 746 mmHg 75%
    01:00 +8°C° 0.1 mm 3 mps 746 mmHg 79%
    02:00 +7°C° 0.1 mm 3 mps 746 mmHg 83%
    03:00 +7°C° 0.2 mm 3 mps 745 mmHg 84%
    04:00 +7°C° 0.2 mm 3 mps 745 mmHg 86%
    05:00 +5°C° 0.2 mm 3 mps 745 mmHg 87%
    06:00 +7°C° 0.1 mm 3 mps 745 mmHg 84%
    07:00 +8°C° 0.1 mm 3 mps 745 mmHg 81%
    08:00 +8°C° 0.1 mm 4 mps 745 mmHg 77%
    09:00 +9°C° 0.1 mm 5 mps 745 mmHg 72%
    10:00 +12°C° 0.1 mm 5 mps 745 mmHg 66%
    11:00 +13°C° 0.1 mm 6 mps 745 mmHg 60%
    12:00 +13°C° 0.2 mm 6 mps 745 mmHg 58%
    13:00 +14°C° 0.2 mm 7 mps 745 mmHg 57%
    14:00 +14°C° 0.2 mm 7 mps 745 mmHg 55%
    15:00 +14°C° 0.1 mm 6 mps 744 mmHg 56%
    16:00 +13°C° 0.1 mm 6 mps 744 mmHg 56%
    17:00 +13°C° 0.1 mm 6 mps 744 mmHg 57%
    18:00 +11°C° 0 mm 6 mps 744 mmHg 60%
    19:00 +10°C° 0 mm 5 mps 744 mmHg 64%
    20:00 +8°C° 0 mm 5 mps 745 mmHg 67%
    21:00 +8°C° 0 mm 5 mps 745 mmHg 67%
    22:00 +8°C° 0 mm 5 mps 745 mmHg 67%
    23:00 +8°C° 0 mm 5 mps 745 mmHg 67%

    Tomorrow, 22 April, Monday

    Time Temperature Precipitation Wind Pressure Humidity
    00:00 +7°C° 0 mm 5 mps 746 mmHg 67%
    01:00 +7°C° 0 mm 5 mps 746 mmHg 66%
    02:00 +7°C° 0 mm 4 mps 746 mmHg 66%
    03:00 +6°C° 0 mm 4 mps 746 mmHg 66%
    04:00 +6°C° 0 mm 4 mps 747 mmHg 66%
    05:00 +6°C° 0 mm 4 mps 747 mmHg 66%
    06:00 +7°C° 0 mm 4 mps 747 mmHg 63%
    07:00 +8°C° 0 mm 4 mps 748 mmHg 61%
    08:00 +9°C° 0 mm 5 mps 748 mmHg 58%
    09:00 +10°C° 0 mm 5 mps 748 mmHg 52%
    10:00 +11°C° 0 mm 6 mps 749 mmHg 46%
    11:00 +13°C° 0 mm 6 mps 749 mmHg 40%
    12:00 +13°C° 0 mm 6 mps 749 mmHg 40%
    13:00 +14°C° 0 mm 6 mps 749 mmHg 40%
    14:00 +14°C° 0 mm 6 mps 749 mmHg 40%
    15:00 +13°C° 0 mm 6 mps 749 mmHg 42%
    16:00 +13°C° 0 mm 5 mps 749 mmHg 44%
    17:00 +13°C° 0 mm 5 mps 749 mmHg 46%
    18:00 +11°C° 0 mm 4 mps 749 mmHg 51%
    19:00 +10°C° 0 mm 4 mps 749 mmHg 56%
    20:00 +9°C° 0 mm 3 mps 750 mmHg 61%
    21:00 +8°C° 0 mm 3 mps 750 mmHg 63%
    22:00 +7°C° 0 mm 3 mps 750 mmHg 65%
    23:00 +7°C° 0 mm 3 mps 750 mmHg 66%

    Day after tomorrow, 23 April, Tuesday

    Time Temperature Precipitation Wind Pressure Humidity
    00:00 +5°C° 0 mm 3 mps 750 mmHg 67%
    01:00 +5°C° 0 mm 3 mps 750 mmHg 68%
    02:00 +5°C° 0 mm 3 mps 750 mmHg 69%
    03:00 +4°C° 0 mm 3 mps 751 mmHg 69%
    04:00 +4°C° 0 mm 3 mps 751 mmHg 70%
    05:00 +4°C° 0 mm 3 mps 751 mmHg 70%
    06:00 +6°C° 0 mm 4 mps 751 mmHg 65%
    07:00 +8°C° 0 mm 5 mps 751 mmHg 60%
    08:00 +10°C° 0 mm 5 mps 751 mmHg 55%
    09:00 +11°C° 0 mm 6 mps 751 mmHg 51%
    10:00 +13°C° 0 mm 6 mps 751 mmHg 46%
    11:00 +14°C° 0 mm 7 mps 751 mmHg 42%
    12:00 +15°C° 0 mm 7 mps 751 mmHg 42%
    13:00 +15°C° 0 mm 7 mps 751 mmHg 42%
    14:00 +16°C° 0 mm 7 mps 751 mmHg 41%
    15:00 +15°C° 0 mm 6 mps 750 mmHg 43%
    16:00 +15°C° 0 mm 6 mps 750 mmHg 45%
    17:00 +15°C° 0 mm 6 mps 750 mmHg 47%
    18:00 +13°C° 0 mm 5 mps 750 mmHg 51%
    19:00 +12°C° 0 mm 5 mps 750 mmHg 55%
    20:00 +11°C° 0 mm 4 mps 750 mmHg 59%
    21:00 +9°C° 0 mm 5 mps 750 mmHg 61%
    22:00 +8°C° 0 mm 5 mps 750 mmHg 63%
    23:00 +8°C° 0 mm 5 mps 750 mmHg 65%

    24 April, Wednesday

    Time Temperature Precipitation Wind Pressure Humidity
    00:00 +7°C° 0 mm 5 mps 750 mmHg 67%
    01:00 +7°C° 0 mm 4 mps 750 mmHg 69%
    02:00 +6°C° 0 mm 4 mps 751 mmHg 71%
    03:00 +6°C° 0 mm 4 mps 750 mmHg 72%
    04:00 +5°C° 0 mm 4 mps 750 mmHg 72%
    05:00 +5°C° 0 mm 4 mps 750 mmHg 73%
    06:00 +7°C° 0 mm 5 mps 751 mmHg 66%
    07:00 +9°C° 0 mm 6 mps 751 mmHg 58%
    08:00 +10°C° 0 mm 7 mps 751 mmHg 51%
    09:00 +12°C° 0 mm 7 mps 751 mmHg 49%
    10:00 +14°C° 0 mm 7 mps 751 mmHg 46%
    11:00 +15°C° 0 mm 8 mps 751 mmHg 44%
    12:00 +16°C° 0 mm 8 mps 751 mmHg 43%
    13:00 +16°C° 0 mm 7 mps 750 mmHg 42%
    14:00 +17°C° 0 mm 7 mps 750 mmHg 41%
    15:00 +16°C° 0 mm 7 mps 750 mmHg 42%
    16:00 +16°C° 0 mm 6 mps 750 mmHg 44%
    17:00 +16°C° 0 mm 6 mps 749 mmHg 45%
    18:00 +14°C° 0 mm 5 mps 749 mmHg 50%
    19:00 +13°C° 0 mm 5 mps 749 mmHg 55%
    20:00 +11°C° 0 mm 4 mps 749 mmHg 60%
    21:00 +11°C° 0 mm 4 mps 749 mmHg 60%
    22:00 +10°C° 0 mm 4 mps 749 mmHg 61%
    23:00 +10°C° 0 mm 4 mps 750 mmHg 62%

    25 April, Thursday

    Time Temperature Precipitation Wind Pressure Humidity
    00:00 +10°C° 0 mm 4 mps 749 mmHg 64%
    01:00 +8°C° 0 mm 4 mps 749 mmHg 66%
    02:00 +8°C° 0 mm 4 mps 749 mmHg 67%
    03:00 +7°C° 0 mm 4 mps 749 mmHg 69%
    04:00 +7°C° 0 mm 4 mps 749 mmHg 70%
    05:00 +6°C° 0 mm 4 mps 749 mmHg 71%
    06:00 +8°C° 0 mm 5 mps 749 mmHg 67%
    07:00 +9°C° 0 mm 6 mps 749 mmHg 63%
    08:00 +11°C° 0 mm 7 mps 749 mmHg 58%
    09:00 +12°C° 0 mm 7 mps 749 mmHg 55%
    10:00 +15°C° 0 mm 7 mps 749 mmHg 52%
    11:00 +16°C° 0 mm 7 mps 749 mmHg 48%
    12:00 +17°C° 0 mm 7 mps 749 mmHg 48%
    13:00 +18°C° 0 mm 7 mps 748 mmHg 47%
    14:00 +20°C° 0 mm 7 mps 748 mmHg 47%
    15:00 +18°C° 0 mm 7 mps 747 mmHg 49%
    16:00 +18°C° 0 mm 7 mps 747 mmHg 51%
    17:00 +19°C° 0 mm 6 mps 746 mmHg 53%
    18:00 +17°C° 0 mm 6 mps 746 mmHg 58%
    19:00 +15°C° 0 mm 5 mps 746 mmHg 62%
    20:00 +14°C° 0 mm 5 mps 746 mmHg 67%
    21:00 +13°C° 0 mm 5 mps 746 mmHg 66%
    22:00 +13°C° 0 mm 5 mps 746 mmHg 65%
    23:00 +13°C° 0 mm 5 mps 746 mmHg 65%

    26 April, Friday

    Time Temperature Precipitation Wind Pressure Humidity
    00:00 +13°C° 0.1 mm 5 mps 745 mmHg 65%
    01:00 +12°C° 0.1 mm 5 mps 745 mmHg 65%
    02:00 +12°C° 0.1 mm 5 mps 745 mmHg 66%
    03:00 +10°C° 0 mm 5 mps 745 mmHg 67%
    04:00 +10°C° 0 mm 5 mps 744 mmHg 68%
    05:00 +9°C° 0 mm 5 mps 744 mmHg 69%
    06:00 +10°C° 0 mm 6 mps 744 mmHg 67%
    07:00 +11°C° 0 mm 6 mps 744 mmHg 65%
    08:00 +13°C° 0 mm 6 mps 744 mmHg 63%
    09:00 +15°C° 0 mm 6 mps 743 mmHg 61%
    10:00 +16°C° 0 mm 7 mps 743 mmHg 58%
    11:00 +18°C° 0 mm 7 mps 743 mmHg 56%
    12:00 +20°C° 0 mm 7 mps 742 mmHg 54%
    13:00 +21°C° 0 mm 7 mps 742 mmHg 52%
    14:00 +23°C° 0 mm 7 mps 742 mmHg 50%
    15:00 +22°C° 0 mm 7 mps 741 mmHg 53%
    16:00 +21°C° 0 mm 6 mps 741 mmHg 55%
    17:00 +21°C° 0 mm 5 mps 740 mmHg 57%
    18:00 +19°C° 0 mm 5 mps 740 mmHg 58%
    19:00 +17°C° 0 mm 6 mps 740 mmHg 58%
    20:00 +16°C° 0 mm 6 mps 740 mmHg 58%
    21:00 +16°C° 0 mm 6 mps 740 mmHg 59%
    22:00 +16°C° 0 mm 6 mps 740 mmHg 59%
    23:00 +15°C° 0 mm 6 mps 740 mmHg 60%
    Show more